Regional Weather Roundup
Issued by NWS

Home | Current Version | Previous Version | Graphics & Text | Print | Product List | Glossary On
Versions: 1 2 3 4 5 6 7 8 9 10 11 12 13 14 15 16 17 18 19 20 21 22 23 24 25 26 27 28 29 30 31 32 33 34 35 36 37 38 39 40 41 42 43 44 45 46 47 48 49 50
000
ASUS43 KBIS 060002
RWRND

NORTH DAKOTA REGIONAL WEATHER ROUNDUP
NATIONAL WEATHER SERVICE BISMARCK ND
600 PM CST FRI FEB 05 2016

NOTE: "FAIR" INDICATES FEW OR NO CLOUDS BELOW 12,000 FEET WITH NO
SIGNIFICANT WEATHER AND/OR OBSTRUCTIONS TO VISIBILITY.


NDZ001>003-009>011-017-060100-
NORTHWEST NORTH DAKOTA

CITY           SKY/WX    TMP DP  RH WIND       PRES   REMARKS
WILLISTON      CLEAR     36  25  64 SW5       30.03F
6HR MIN TEMP:  29; 6HR MAX TEMP:  41;

MINOT          CLOUDY    36  21  54 SW7       30.03F
MINOT AFB      CLOUDY    32  24  70 CALM      30.02F
$$

NDZ018>021-031>035-040>046-060100-
SOUTHWEST NORTH DAKOTA

CITY           SKY/WX    TMP DP  RH WIND       PRES   REMARKS
BISMARCK       CLEAR     37  24  59 W7        30.11F
6HR MIN TEMP:  36; 6HR MAX TEMP:  43;

DICKINSON      CLEAR     30  21  69 SW7       30.05F
GARRISON         N/A     32  21  64 W6        30.06F
6HR MIN TEMP:  31; 6HR MAX TEMP:  39;

HETTINGER ARPT CLEAR     34  20  56 W6        30.12F
$$

NDZ004>008-012>016-024-026-027-054-060100-
NORTHEAST NORTH DAKOTA

CITY           SKY/WX    TMP DP  RH WIND       PRES   REMARKS
GRAND FORKS    PTCLDY    23  16  74 SE5       30.13S WCI  17
GRND FRKS AFB  CLEAR     22  17  79 W5        30.12F WCI  16
DEVILS LAKE    CLEAR     23  19  85 S6        30.09F WCI  16
$$

NDZ022-023-025-028>030-036>039-047>053-060100-
SOUTHEAST NORTH DAKOTA

CITY           SKY/WX    TMP DP  RH WIND       PRES   REMARKS
FARGO          CLEAR     25  19  78 SW3       30.14S
6HR MIN TEMP:  25; 6HR MAX TEMP:  31;

JAMESTOWN      CLEAR     28  17  63 W5        30.11S
$$




USA.gov is the U.S. government's official web portal to all federal, state and local government web resources and services.